| time (UTC) | temp F | wind direction | speed MPH | gust MPH | rain 1hr in | rain 24hr in | rain mn in | humidity % | barometer mb |
| 20260504081509 | 44 | 193 | 2.0 | 4.0 | 0.00 | 0.00 | 0.00 | 64 | 1004.1 |
| 20260504044539 | 51 | 295 | 1.0 | 4.0 | 0.00 | 0.00 | 0.00 | 53 | 1006.4 |
| 20260504043039 | 58 | 58 | 3.0 | 5.0 | 0.00 | 0.00 | 0.00 | 42 | 1006.2 |
| 20260504041543 | 54 | 335 | 0.0 | 3.0 | 0.00 | 0.00 | 0.00 | 48 | 1006.4 |
| 20260504040041 | 57 | 318 | 1.0 | 3.0 | 0.00 | 0.00 | 0.00 | 44 | 1006.3 |
| 20260504034544 | 59 | 60 | 2.0 | 3.0 | 0.00 | 0.00 | 0.00 | 42 | 1006.2 |
| 20260504033036 | 60 | 76 | 3.0 | 7.0 | 0.00 | 0.00 | 0.00 | 42 | 1006.1 |
| 20260504031540 | 60 | 74 | 2.0 | 4.0 | 0.00 | 0.00 | 0.00 | 40 | 1006.2 |
| 20260504030036 | 60 | 32 | 0.0 | 2.0 | 0.00 | 0.00 | 0.00 | 40 | 1006.1 |
| 20260504024540 | 62 | 22 | 1.0 | 3.0 | 0.00 | 0.00 | 0.00 | 37 | 1006.0 |
| 20260504023035 | 63 | 22 | 1.0 | 2.0 | 0.00 | 0.00 | 0.00 | 37 | 1005.9 |
| 20260504021536 | 63 | 18 | 1.0 | 2.0 | 0.00 | 0.00 | 0.00 | 37 | 1005.7 |
| 20260504020038 | 64 | 34 | 2.0 | 3.0 | 0.00 | 0.00 | 0.00 | 36 | 1005.6 |
| 20260504014537 | 65 | 23 | 2.0 | 3.0 | 0.00 | 0.00 | 0.00 | 34 | 1005.7 |
| 20260504013042 | 67 | 16 | 3.0 | 5.0 | 0.00 | 0.00 | 0.00 | 32 | 1005.7 |
| 20260504011532 | 69 | 25 | 4.0 | 6.0 | 0.00 | 0.00 | 0.00 | 30 | 1005.7 |
| 20260504010030 | 71 | 15 | 5.0 | 8.0 | 0.00 | 0.00 | 0.00 | 28 | 1005.9 |
| 20260504004528 | 72 | 11 | 5.0 | 9.0 | 0.00 | 0.00 | 0.00 | 26 | 1006.1 |
| 20260504003026 | 74 | 359 | 6.0 | 9.0 | 0.00 | 0.00 | 0.00 | 24 | 1006.3 |
| 20260504001534 | 75 | 23 | 6.0 | 11.0 | 0.00 | 0.00 | 0.00 | 24 | 1006.2 |
| 20260504000025 | 76 | 9 | 8.0 | 12.0 | 0.00 | 0.00 | 0.00 | 22 | 1006.5 |
| 20260503234524 | 75 | 13 | 8.0 | 12.0 | 0.00 | 0.00 | 0.00 | 23 | 1006.5 |
| 20260503233023 | 75 | 8 | 8.0 | 12.0 | 0.00 | 0.00 | 0.00 | 22 | 1006.6 |
| 20260503231525 | 76 | 30 | 8.0 | 11.0 | 0.00 | 0.00 | 0.00 | 22 | 1006.7 |
| 20260503230035 | 76 | 335 | 6.0 | 13.0 | 0.00 | 0.00 | 0.00 | 22 | 1006.9 |
| 20260503224521 | 76 | 35 | 7.0 | 11.0 | 0.00 | 0.00 | 0.00 | 22 | 1007.0 |
| 20260503223019 | 77 | 1 | 6.0 | 12.0 | 0.00 | 0.00 | 0.00 | 22 | 1007.2 |
| 20260503221517 | 76 | 321 | 5.0 | 11.0 | 0.00 | 0.00 | 0.00 | 23 | 1007.3 |
| 20260503220016 | 77 | 42 | 6.0 | 12.0 | 0.00 | 0.00 | 0.00 | 23 | 1007.5 |
| 20260503214534 | 77 | 47 | 7.0 | 20.0 | 0.00 | 0.00 | 0.00 | 24 | 1007.7 |
| 20260503213014 | 76 | 43 | 11.0 | 16.0 | 0.00 | 0.00 | 0.00 | 22 | 1007.6 |
| 20260503211511 | 76 | 32 | 9.0 | 16.0 | 0.00 | 0.00 | 0.00 | 24 | 1007.9 |
| 20260503210010 | 76 | 37 | 9.0 | 15.0 | 0.00 | 0.00 | 0.00 | 23 | 1008.1 |
| 20260503204508 | 75 | 36 | 7.0 | 17.0 | 0.00 | 0.00 | 0.00 | 25 | 1008.4 |
| 20260503203011 | 77 | 69 | 8.0 | 15.0 | 0.00 | 0.00 | 0.00 | 24 | 1008.6 |
| 20260503201504 | 76 | 51 | 8.0 | 16.0 | 0.00 | 0.00 | 0.00 | 21 | 1009.0 |
| 20260503200003 | 77 | 64 | 10.0 | 18.0 | 0.00 | 0.00 | 0.00 | 22 | 1009.3 |
| 20260503194505 | 78 | 31 | 12.0 | 18.0 | 0.00 | 0.00 | 0.00 | 21 | 1009.4 |
| 20260503193118 | 76 | 18 | 13.0 | 18.0 | 0.00 | 0.00 | 0.00 | 23 | 1009.5 |
| 20260503191618 | 76 | 41 | 14.0 | 18.0 | 0.00 | 0.00 | 0.00 | 24 | 1009.5 |
| 20260503190059 | 76 | 46 | 11.0 | 19.0 | 0.00 | 0.00 | 0.00 | 26 | 1009.9 |
| 20260503184553 | 74 | 14 | 9.0 | 18.0 | 0.00 | 0.00 | 0.00 | 24 | 1010.2 |
| 20260503183050 | 74 | 53 | 13.0 | 23.0 | 0.00 | 0.00 | 0.00 | 25 | 1010.7 |
| 20260503181550 | 74 | 44 | 14.0 | 19.0 | 0.00 | 0.00 | 0.00 | 25 | 1010.9 |
| 20260503180055 | 73 | 56 | 13.0 | 18.0 | 0.00 | 0.00 | 0.00 | 26 | 1011.2 |
| 20260503174551 | 73 | 8 | 14.0 | 20.0 | 0.00 | 0.00 | 0.00 | 26 | 1011.4 |
| 20260503173041 | 72 | 11 | 17.0 | 23.0 | 0.00 | 0.00 | 0.00 | 26 | 1011.7 |
| 20260503171539 | 71 | 13 | 17.0 | 23.0 | 0.00 | 0.00 | 0.00 | 26 | 1011.9 |